Tracking 28091 objects as of 30-Sep-2023
HD Live streaming from Space Station
objects crossing your sky now

STARLINK-6169

Track STARLINK-6169 now!
10-day predictions
STARLINK-6169 is classified as:


NORAD ID: 56889
Int'l Code: 2023-083P
Perigee: 565.3 km
Apogee: 567.0 km
Inclination: 43.0 °
Period: 95.8 minutes
Semi major axis: 6937 km
RCS: Unknown
Launch date: June 12, 2023
Source: United States (US)
Launch site: AIR FORCE EASTERN TEST RANGE (AFETR)
Your satellite tracking list
Your tracking list is empty




NASA's NSSDC Master Catalog

Two Line Element Set (TLE):
1 56889U 23083P   23273.17615007  .00008095  00000-0  61336-3 0  9990
2 56889  43.0020 246.0024 0001271 265.6853  94.3845 15.02554320 17560
Source of the keplerian elements: AFSPC